Tracking 30973 objects as of 3-Jul-2025
HD Live streaming from Space Station
objects crossing your sky now

SL-14 R/B

Track SL-14 R/B now!
10-day predictions


NORAD ID: 14552
Int'l Code: 1983-122B
Perigee: 607.4 km
Apogee: 630.6 km
Inclination: 82.5 °
Period: 96.9 minutes
Semi major axis: 6990 km
RCS: 4.6828 m2 (large)
Launch date: December 15, 1983
Source: Commonwealth of Independent States (former USSR) (CIS)
Launch site: PLESETSK MISSILE AND SPACE COMPLEX (PKMTR)

Note: This is a ROCKET BODY
Your satellite tracking list
STARLINK-5631
Track 1 satellite(s)




NASA's NSSDC Master Catalog

Two Line Element Set (TLE):
1 14552U 83122B   25183.81034349  .00000314  00000-0  33514-4 0  9992
2 14552  82.5220 204.4556 0016586 180.8800 179.2390 14.85539406223738
Source of the keplerian elements: AFSPC